TimeEST,TemperatureF,Dew PointF,Humidity,Sea Level PressureIn,VisibilityMPH,Wind Direction,Wind SpeedMPH,Gust SpeedMPH,PrecipitationIn,Events,Conditions,WindDirDegrees,DateUTC
12:54 AM,17.1,9.0,71,30.09,8.0,WNW,11.5,24.2,0.00,Snow,Light Snow,300,2013-02-09 05:54:00
1:54 AM,17.1,9.0,71,30.12,7.0,WNW,12.7,-,0.00,Snow,Light Snow,290,2013-02-09 06:54:00
2:54 AM,16.0,9.0,74,30.15,5.0,WNW,13.8,20.7,0.00,Snow,Light Snow,300,2013-02-09 07:54:00
3:54 AM,16.0,9.0,74,30.17,5.0,WNW,11.5,21.9,0.00,Snow,Light Snow,300,2013-02-09 08:54:00
4:54 AM,16.0,9.0,74,30.20,4.0,NW,13.8,23.0,0.00,Snow,Light Snow,310,2013-02-09 09:54:00
5:54 AM,16.0,9.0,74,30.23,5.0,NNW,13.8,-,0.00,Snow,Light Snow,330,2013-02-09 10:54:00
6:54 AM,16.0,9.0,74,30.28,7.0,WNW,13.8,23.0,0.00,Snow,Light Snow,300,2013-02-09 11:54:00
7:54 AM,16.0,9.0,74,30.32,3.0,WNW,6.9,-,0.00,Snow,Light Snow,290,2013-02-09 12:54:00
8:12 AM,15.8,10.4,79,30.25,2.5,Variable,5.8,-,0.00,Snow,Light Snow,0,2013-02-09 13:12:00
8:19 AM,15.8,10.4,79,30.25,3.0,WNW,6.9,-,0.00,Snow,Light Snow,290,2013-02-09 13:19:00
8:54 AM,17.1,10.0,74,30.34,4.0,West,8.1,-,0.00,Snow,Light Snow,280,2013-02-09 13:54:00
9:54 AM,18.0,10.0,71,30.34,8.0,WNW,10.4,-,0.00,Snow,Light Snow,300,2013-02-09 14:54:00
10:54 AM,21.0,10.9,65,30.35,10.0,WNW,10.4,-,0.00,,Mostly Cloudy,300,2013-02-09 15:54:00
11:21 AM,21.2,12.2,68,30.27,10.0,WNW,13.8,-,N/A,,Scattered Clouds,290,2013-02-09 16:21:00
11:54 AM,23.0,12.0,63,30.34,10.0,WNW,15.0,20.7,N/A,,Partly Cloudy,300,2013-02-09 16:54:00
12:54 PM,26.1,14.0,60,30.32,10.0,West,9.2,-,N/A,,Clear,280,2013-02-09 17:54:00
1:54 PM,28.0,14.0,56,30.32,10.0,WNW,11.5,18.4,N/A,,Clear,290,2013-02-09 18:54:00
2:54 PM,28.9,12.0,49,30.32,10.0,NW,10.4,-,N/A,,Clear,310,2013-02-09 19:54:00
3:54 PM,30.0,12.0,47,30.33,10.0,WNW,9.2,-,N/A,,Clear,290,2013-02-09 20:54:00
4:54 PM,28.0,10.9,49,30.34,10.0,NW,8.1,-,N/A,,Clear,320,2013-02-09 21:54:00
5:54 PM,27.0,10.9,51,30.36,10.0,West,4.6,-,N/A,,Clear,280,2013-02-09 22:54:00
6:54 PM,25.0,10.9,55,30.38,10.0,West,3.5,-,N/A,,Clear,260,2013-02-09 23:54:00
7:54 PM,24.1,12.0,60,30.38,10.0,Calm,Calm,-,N/A,,Clear,0,2013-02-10 00:54:00
8:54 PM,21.9,12.0,66,30.40,10.0,SW,3.5,-,N/A,,Clear,220,2013-02-10 01:54:00
9:54 PM,21.9,10.9,63,30.41,10.0,WSW,5.8,-,N/A,,Clear,250,2013-02-10 02:54:00
10:54 PM,16.0,10.0,77,30.41,10.0,Calm,Calm,-,N/A,,Clear,0,2013-02-10 03:54:00
11:54 PM,14.0,10.0,84,30.42,4.0,Calm,Calm,-,N/A,,Clear,0,2013-02-10 04:54:00